This is the latest recevied weather packets stored in our database for station/object KE8GJZ-1. If no packets are shown the sender has not sent any weather packets the latest 10 day(s).
| Time | Temp. | Humidity | Pressure | Rain* | Wind** | Luminosity | Snow |
|---|---|---|---|---|---|---|---|
| 1778069947 | 6.11° C | 67% | 1009.1 hPa | 0 mm | - | 32 W/m² | - |
| 1778069644 | 6.11° C | 68% | 1008.9 hPa | 0 mm | - | 30 W/m² | - |
| 1778069341 | 5.56° C | 70% | 1009 hPa | 0 mm | - | 29 W/m² | - |
| 1778069038 | 5.56° C | 70% | 1008.7 hPa | 0 mm | - | 23 W/m² | - |
| 1778068735 | 5.56° C | 70% | 1008.6 hPa | 0 mm | - | 23 W/m² | - |
| 1778068433 | 5.56° C | 72% | 1008.9 hPa | 0 mm | - | 34 W/m² | - |
| 1778068131 | 5.56° C | 70% | 1008.9 hPa | 0 mm | - | 29 W/m² | - |
| 1778067828 | 5.56° C | 72% | 1008.6 hPa | 0 mm | - | 20 W/m² | - |
| 1778067528 | 5.56° C | 72% | 1009 hPa | 0 mm | - | 26 W/m² | - |
| 1778067224 | 5° C | 75% | 1009 hPa | 0 mm | - | 31 W/m² | - |
| 1778066921 | 5° C | 76% | 1008.5 hPa | 0 mm | - | 32 W/m² | - |
| 1778066618 | 5° C | 76% | 1008.6 hPa | 0 mm | - | 32 W/m² | - |
| 1778066315 | 5° C | 75% | 1008.3 hPa | 0 mm | - | 29 W/m² | - |
| 1778066014 | 5° C | 75% | 1008.4 hPa | 0 mm | - | 25 W/m² | - |
| 1778065711 | 5° C | 75% | 1008.5 hPa | 0 mm | - | 17 W/m² | - |
| 1778065408 | 5° C | 75% | 1008.3 hPa | 0 mm | - | 11 W/m² | - |
| 1778065105 | 5° C | 73% | 1008.5 hPa | 0 mm | - | 9 W/m² | - |
| 1778064801 | 5° C | 73% | 1008.3 hPa | 0 mm | - | 6 W/m² | - |
| 1778064498 | 5° C | 72% | 1008.1 hPa | 0 mm | - | 6 W/m² | - |
| 1778064196 | 5.56° C | 72% | 1008 hPa | 0 mm | - | 3 W/m² | - |
| 1778063894 | 5.56° C | 70% | 1008 hPa | 0 mm | - | 2 W/m² | - |
| 1778063591 | 5.56° C | 70% | 1007.7 hPa | 0 mm | - | 0 W/m² | - |
| 1778063288 | 6.11° C | 69% | 1008.1 hPa | 0 mm | - | 0 W/m² | - |
| 1778062986 | 6.11° C | 69% | 1007.9 hPa | 0 mm | - | 0 W/m² | - |
| 1778062683 | 6.11° C | 69% | 1007.7 hPa | 0 mm | - | 0 W/m² | - |
* Rain latest hour (hover to see other rain measurements)
** Current wind speed in m/s (hover to see current wind gust speed)